Location: Newark
(45.4422°N, 16.2769°E)
Time: 08:50:43
(UTC+00:00)

Tiros 1 despin weight - Pass Details

Date: 23 December 2019
Orbit: 593 x 643 km, 48.2° (Epoch: 19 January)

Event Time Altitude Azimuth Distance (km) Brightness Sun altitude
Rises 03:21:04 0° 287° (WNW) 2,907 - -32.4°
Reaches altitude 10° 03:23:24 10° 289° (WNW) 1,991 - -32.0°
Maximum altitude 03:27:59 84° 16° (NNE) 622 - -31.2°
Exits shadow 03:29:57 34° 104° (ESE) 1,016 ? -30.9°
Drops below altitude 10° 03:32:30 10° 107° (ESE) 1,954 ? -30.4°
Sets 03:34:46 0° 108° (ESE) 2,848 ? -30.0°
